Location: Bright Sky Observatory
(40.7821°N, 74.2425°W)
Time: 06:42:02
(UTC-05:00)

Amateur Radio Satellites - All Passes

Search period start: 01 February 2015 06:12
Search period end: 02 February 2015 06:12
Location: Bright Sky Observatory, 40.7821°N, 74.2425°W

Satellite Date Start Highest point End Downlink Frequencies (MHz)
Time Altitude Azimuth
JAS-2 01 Feb 06:17:56 06:22:16 21° 294° (WNW) 06:26:44 435.910
CUBESAT XI-V 01 Feb 06:18:05 06:22:29 44° 262° (W) 06:26:55 437.345
YUBILEINY 01 Feb 06:32:21 06:41:11 89° 265° (W) 06:50:02 435.215
PRISM 01 Feb 06:39:59 06:42:35 16° 268° (W) 06:45:01 437.425
RS-15 01 Feb 06:56:27 07:05:55 31° 329° (NNW) 07:15:24 29.354- 29.394
AO-7 01 Feb 07:06:15 07:09:41 13° 314° (NW) 07:12:39 29.400- 29.500
PHONESAT 2.4 01 Feb 07:10:22 07:13:11 22° 152° (SSE) 07:16:03 2401.200-2431.200
Cubesat XI-IV 01 Feb 07:13:37 07:18:31 36° 291° (WNW) 07:23:21 437.490
VERMONT LUNAR 01 Feb 07:29:48 07:33:07 42° 160° (SSE) 07:36:26 437.305
CUTE-I 01 Feb 07:33:04 07:37:27 25° 294° (WNW) 07:41:43 437.470
HO-68 01 Feb 07:33:32 07:38:13 19° 89° (E) 07:43:15 435.675
STRAND 1 01 Feb 07:45:53 07:46:46 10° 274° (W) 07:47:15 437.568
SO-50 01 Feb 08:01:02 08:01:10 10° 107° (ESE) 08:01:37 436.795
DOVE 4 01 Feb 08:04:27 08:07:53 19° 89° (E) 08:11:22 437.250
GOMX 1 01 Feb 08:06:44 08:11:16 28° 92° (E) 08:15:41 467.674
CANX-2 01 Feb 08:11:45 08:15:26 29° 95° (E) 08:19:07 2200.000
AAUSAT CUBESAT 2 01 Feb 08:12:21 08:14:53 16° 91° (E) 08:17:35 437.432
TIGRISAT 01 Feb 08:18:30 08:19:16 10° 62° (ENE) 08:20:17 435.000
BRITE-PL 01 Feb 08:27:17 08:32:54 64° 99° (E) 08:38:13 437.365/2234.400
YUBILEINY 01 Feb 08:31:31 08:36:56 17° 281° (W) 08:41:50 435.215
CUTE 1.7 + AOD 2 01 Feb 08:35:07 08:39:13 49° 99° (E) 08:43:19 437.475
PHONESAT 2.4 01 Feb 08:47:50 08:51:25 67° 168° (SSE) 08:55:01 2401.200-2431.200
Oscar 11 01 Feb 08:48:43 08:51:54 21° 92° (E) 08:55:12 145.826/435.025
POPSAT HIP 1 01 Feb 08:49:19 08:50:50 12° 64° (ENE) 08:52:35 437.405
DUCHIFAT 1 01 Feb 08:50:00 08:51:31 12° 64° (ENE) 08:53:15 145.980
UWE-3 01 Feb 08:51:59 08:53:59 13° 88° (E) 08:56:12 435.000/436.395/437.385
SEEDS 01 Feb 09:01:05 09:05:19 84° 104° (ESE) 09:09:29 437.485
CINEMA 3 01 Feb 09:03:41 09:08:10 39° 96° (E) 09:12:27 145.822/145.860
VERMONT LUNAR 01 Feb 09:07:36 09:11:05 87° 180° (S) 09:14:36 437.305
UNISAT 6 01 Feb 09:09:13 09:13:28 35° 71° (ENE) 09:17:44 437.425
RS-15 01 Feb 09:15:39 09:23:12 20° 3° (N) 09:30:58 29.354- 29.394
HO-68 01 Feb 09:19:36 09:26:46 77° 288° (WNW) 09:33:55 435.675
COMPASS 1 01 Feb 09:22:56 09:27:05 65° 285° (WNW) 09:31:11 437.405
NANOSAT C BR1 01 Feb 09:23:05 09:26:39 27° 69° (ENE) 09:30:19 145.865
DELFI C3 01 Feb 09:23:15 09:27:03 39° 98° (E) 09:30:52 145.870
HUMSAT D 01 Feb 09:25:30 09:27:24 13° 89° (E) 09:29:31 437.325/437.525
UKube-1 01 Feb 09:25:32 09:29:17 28° 96° (E) 09:33:04 .
SO-50 01 Feb 09:36:30 09:41:04 85° 303° (WNW) 09:45:49 436.795
QB50P2 01 Feb 09:38:51 09:42:52 41° 72° (ENE) 09:46:57 145.880/145.840
DOVE 4 01 Feb 09:41:03 09:46:03 50° 288° (WNW) 09:50:45 437.250
BUGSAT 1 01 Feb 09:41:40 09:45:19 32° 70° (ENE) 09:49:04 437.445
GOMX 1 01 Feb 09:44:33 09:49:28 36° 291° (WNW) 09:54:05 467.674
BEESAT 2 01 Feb 09:44:49 09:48:48 40° 52° (NE) 09:52:42 435.950
ANTELSAT 01 Feb 09:44:56 09:49:40 82° 76° (ENE) 09:54:23 437.575/2403.000
ZACube-1 01 Feb 09:46:41 09:50:54 44° 98° (E) 09:55:00 437.345
QB50P1 01 Feb 09:46:52 09:50:59 49° 73° (ENE) 09:55:11 145.935-145.965
AAUSAT CUBESAT 2 01 Feb 09:46:53 09:50:47 39° 288° (WNW) 09:54:39 437.432
CANX-2 01 Feb 09:47:53 09:51:16 23° 291° (WNW) 09:54:34 2200.000
DX 1 01 Feb 09:49:56 09:54:16 55° 100° (E) 09:58:36 434.975-435.025
TIGRISAT 01 Feb 09:50:41 09:55:25 89° 269° (W) 10:00:07 435.000
CUBEBUG 2 01 Feb 09:53:33 09:58:06 78° 102° (ESE) 10:02:27 437.445
BEESAT 3 01 Feb 09:55:26 09:59:33 58° 55° (NE) 10:03:36 437.485
FUNcube-1 01 Feb 09:57:25 10:01:46 57° 100° (E) 10:05:58 145.935
AIST 2 01 Feb 09:58:11 10:01:46 26° 47° (NE) 10:05:22 435.215
POLYITAN 1 01 Feb 10:03:44 10:08:02 79° 76° (ENE) 10:12:23 437.675
50 SAT 01 Feb 10:05:20 10:08:45 27° 95° (E) 10:12:11 437.505
BRITE-PL 01 Feb 10:06:57 10:10:52 19° 297° (WNW) 10:14:28 437.365/2234.400
CUTE 1.7 + AOD 2 01 Feb 10:12:22 10:14:49 15° 294° (WNW) 10:17:05 437.475
AIST 1 01 Feb 10:19:38 10:23:30 36° 92° (E) 10:27:28
POPSAT HIP 1 01 Feb 10:22:00 10:26:16 66° 259° (W) 10:30:34 437.405
DUCHIFAT 1 01 Feb 10:22:39 10:26:53 65° 259° (W) 10:31:11 145.980
Oscar 11 01 Feb 10:24:18 10:28:13 33° 289° (WNW) 10:32:04 145.826/435.025
PHONESAT 2.4 01 Feb 10:26:20 10:29:58 86° 184° (S) 10:33:36 2401.200-2431.200
UWE-3 01 Feb 10:26:39 10:31:02 54° 286° (WNW) 10:35:15 435.000/436.395/437.385
AISAT 01 Feb 10:30:15 10:34:43 58° 100° (E) 10:39:10 437.250
GONETS M04 01 Feb 10:39:46 10:46:35 26° 65° (ENE) 10:53:40
CINEMA 3 01 Feb 10:41:26 10:45:08 22° 294° (WNW) 10:48:35 145.822/145.860
PCSat 01 Feb 10:43:08 10:45:02 12° 36° (NE) 10:47:10 145.827
ESTCUBE 1 01 Feb 10:43:56 10:48:06 35° 97° (E) 10:52:16 437.505/2401.250
VERMONT LUNAR 01 Feb 10:45:42 10:49:10 64° 194° (SSW) 10:52:38 437.305
UNISAT 6 01 Feb 10:46:30 10:50:21 24° 267° (W) 10:54:05 437.425
CUBEBUG 1 01 Feb 10:54:55 10:59:10 43° 98° (E) 11:03:25 437.445
VELOX 1 01 Feb 10:56:42 11:01:12 75° 285° (WNW) 11:05:41 145.980
NANOSAT C BR1 01 Feb 10:58:53 11:02:31 26° 266° (W) 11:06:05 145.865
DELFI C3 01 Feb 10:59:25 11:02:02 16° 293° (WNW) 11:04:30 145.870
HUMSAT D 01 Feb 10:59:30 11:03:36 50° 287° (WNW) 11:07:37 437.325/437.525
UKube-1 01 Feb 11:01:44 11:05:24 26° 291° (WNW) 11:08:58 .
HO-68 01 Feb 11:09:30 11:13:30 15° 306° (NW) 11:17:09 435.675
QB50P2 01 Feb 11:16:07 11:19:02 17° 269° (W) 11:21:48 145.880/145.840
BUGSAT 1 01 Feb 11:17:49 11:20:56 20° 267° (W) 11:23:59 437.445
SO-50 01 Feb 11:19:50 11:22:26 14° 324° (NW) 11:24:57 436.795
BEESAT 2 01 Feb 11:23:44 11:26:46 19° 248° (WSW) 11:29:38 435.950
ZACube-1 01 Feb 11:24:02 11:26:57 17° 294° (WNW) 11:29:42 437.345
QB50P1 01 Feb 11:24:52 11:27:15 14° 270° (W) 11:29:26 145.935-145.965
DX 1 01 Feb 11:27:37 11:30:08 15° 296° (WNW) 11:32:28 434.975-435.025
RS-15 01 Feb 11:30:07 11:40:11 37° 36° (NE) 11:50:49 29.354- 29.394
CUBEBUG 2 01 Feb 11:32:53 11:34:12 11° 298° (WNW) 11:35:15 437.445
BEESAT 3 01 Feb 11:35:18 11:37:16 13° 250° (WSW) 11:39:00 437.485
FUNcube-1 01 Feb 11:35:25 11:37:40 14° 296° (WNW) 11:39:42 145.935
AIST 2 01 Feb 11:36:34 11:40:28 34° 245° (WSW) 11:44:15 435.215
50 SAT 01 Feb 11:40:33 11:43:48 23° 291° (WNW) 11:46:54 437.505
AIST 1 01 Feb 11:58:26 12:01:23 18° 290° (WNW) 12:04:13
SPROUT 01 Feb 12:02:45 12:07:03 58° 100° (E) 12:11:19 437.525
PHONESAT 2.4 01 Feb 12:04:57 12:08:24 41° 201° (SSW) 12:11:51 2401.200-2431.200
AISAT 01 Feb 12:08:22 12:10:55 15° 296° (WNW) 12:13:17 437.250
Oscar 19 01 Feb 12:21:06 12:26:12 61° 73° (ENE) 12:31:21 437.125/150
ESTCUBE 1 01 Feb 12:21:15 12:24:49 22° 292° (WNW) 12:28:16 437.505/2401.250
VERMONT LUNAR 01 Feb 12:24:15 12:26:56 20° 209° (SSW) 12:29:34 437.305
PCSat 01 Feb 12:24:18 12:29:42 61° 57° (ENE) 12:35:04 145.827
Gurwin Techsat 1B 01 Feb 12:24:42 12:27:58 17° 63° (ENE) 12:31:25 435.225
TISAT 1 01 Feb 12:28:03 12:32:21 75° 284° (WNW) 12:36:37 437.305
CUBEBUG 1 01 Feb 12:32:09 12:35:16 18° 294° (WNW) 12:38:15 437.445
GONETS M04 01 Feb 12:35:41 12:44:18 69° 266° (W) 12:52:53
ITAMSAT 1 01 Feb 12:45:20 12:50:01 37° 69° (ENE) 12:54:47 435.822/435.867
SWISSCUBE 01 Feb 12:51:24 12:55:35 30° 96° (E) 12:59:50 437.505
BEESAT 01 Feb 13:06:19 13:10:47 39° 98° (E) 13:15:17 436.000
ITUPSAT 1 01 Feb 13:12:20 13:16:55 44° 98° (E) 13:21:32 437.325
HORYU 2 01 Feb 13:22:07 13:24:45 16° 65° (ENE) 13:27:32 437.375
SPROUT 01 Feb 13:40:31 13:42:44 13° 295° (WNW) 13:44:45 437.525
RS-15 01 Feb 13:42:28 13:53:53 79° 241° (WSW) 14:05:46 29.354- 29.394
PHONESAT 2.4 01 Feb 13:45:22 13:46:26 11° 214° (SW) 13:47:23 2401.200-2431.200
STARS 01 Feb 13:54:33 13:57:10 16° 91° (E) 13:59:58 437.465
DANDE 01 Feb 13:57:27 14:02:45 28° 64° (ENE) 14:06:59 436.750
Gurwin Techsat 1B 01 Feb 14:02:12 14:07:28 65° 258° (WSW) 14:12:47 435.225
Oscar 19 01 Feb 14:02:49 14:06:04 16° 271° (W) 14:09:05 437.125/150
KKS-1 01 Feb 14:07:44 14:11:48 33° 96° (E) 14:15:53 437.445
CUSAT 1 01 Feb 14:07:46 14:13:11 39° 70° (ENE) 14:17:18 437.405
PCSat 01 Feb 14:08:59 14:12:41 18° 254° (WSW) 14:16:10 145.827
AO-7 01 Feb 14:16:36 14:24:21 45° 63° (ENE) 14:32:13 29.400- 29.500
ITAMSAT 1 01 Feb 14:25:15 14:29:38 27° 266° (W) 14:33:57 435.822/435.867
SWISSCUBE 01 Feb 14:29:18 14:33:25 29° 291° (WNW) 14:37:28 437.505
GONETS M04 01 Feb 14:36:55 14:39:42 11° 284° (WNW) 14:41:45
BEESAT 01 Feb 14:44:43 14:48:27 22° 294° (WNW) 14:52:03 436.000
JAS-2 01 Feb 14:46:00 14:49:55 22° 66° (ENE) 14:53:52 435.910
O/OREOS (USA 219) 01 Feb 14:46:01 14:49:57 31° 105° (ESE) 14:53:59 437.305
ITUPSAT 1 01 Feb 14:51:01 14:54:34 20° 294° (WNW) 14:57:58 437.325
HORYU 2 01 Feb 14:56:39 15:01:03 52° 260° (W) 15:05:28 437.375
M-CUBED/EXP-1 PRIME 01 Feb 15:04:01 15:06:47 24° 102° (ESE) 15:09:41 437.505
STARS 01 Feb 15:29:42 15:33:59 47° 287° (WNW) 15:38:12 437.465
AUBIESAT-1 01 Feb 15:33:46 15:37:03 53° 105° (ESE) 15:40:30 437.475
DANDE 01 Feb 15:40:53 15:46:19 33° 273° (W) 15:50:26 436.750
KKS-1 01 Feb 15:44:44 15:48:19 23° 293° (WNW) 15:51:46 437.445
CUSAT 1 01 Feb 15:51:39 15:55:40 20° 277° (W) 15:58:50 437.405
RS-15 01 Feb 15:57:33 16:04:53 18° 259° (W) 16:11:31 29.354- 29.394
AO-7 01 Feb 16:09:23 16:17:14 42° 262° (W) 16:25:01 29.400- 29.500
MOZHAYETS 4 01 Feb 16:12:20 16:16:21 30° 95° (E) 16:20:25
O/OREOS (USA 219) 01 Feb 16:25:38 16:29:25 25° 302° (WNW) 16:33:10 437.305
SO-50 01 Feb 16:29:05 16:31:44 15° 37° (NE) 16:34:32 436.795
JAS-2 01 Feb 16:29:41 16:34:52 44° 261° (W) 16:39:49 435.910
M-CUBED/EXP-1 PRIME 01 Feb 16:39:18 16:41:43 18° 295° (WNW) 16:44:07 437.505
Cubesat XI-IV 01 Feb 16:55:27 17:00:30 47° 71° (ENE) 17:05:38 437.490
CUTE-I 01 Feb 17:14:05 17:19:21 69° 74° (ENE) 17:24:42 437.470
YUBILEINY 01 Feb 17:39:23 17:45:11 21° 81° (E) 17:51:25 435.215
MOZHAYETS 4 01 Feb 17:49:42 17:53:31 26° 291° (WNW) 17:57:15
HO-68 01 Feb 18:03:51 18:07:37 16° 54° (NE) 18:11:44 435.675
SO-50 01 Feb 18:08:11 18:13:08 80° 57° (ENE) 18:18:04 436.795
STRAND 1 01 Feb 18:12:52 18:17:20 30° 95° (E) 18:21:52 437.568
CUBESAT XI-V 01 Feb 18:14:53 18:19:24 45° 98° (E) 18:23:56 437.345
PRISM 01 Feb 18:21:06 18:25:17 72° 103° (ESE) 18:29:26 437.425
Cubesat XI-IV 01 Feb 18:36:47 18:40:54 22° 268° (W) 18:44:54 437.490
CUTE-I 01 Feb 18:57:02 19:00:04 15° 271° (W) 19:02:50 437.470
AAUSAT CUBESAT 2 01 Feb 19:04:45 19:06:17 12° 65° (ENE) 19:08:01 437.432
CANX-2 01 Feb 19:05:05 19:08:20 22° 69° (ENE) 19:11:40 2200.000
DOVE 4 01 Feb 19:09:36 19:13:15 20° 65° (ENE) 19:17:10 437.250
GOMX 1 01 Feb 19:14:08 19:18:35 30° 68° (ENE) 19:23:19 467.674
CUTE 1.7 + AOD 2 01 Feb 19:27:58 19:31:50 34° 72° (ENE) 19:35:45 437.475
ISS 01 Feb 19:31:31 19:34:03 21° 134° (SE) 19:36:39 145.825
YUBILEINY 01 Feb 19:32:28 19:41:09 78° 279° (W) 19:49:55 435.215
BRITE-PL 01 Feb 19:37:10 19:42:17 68° 75° (ENE) 19:47:49 437.365/2234.400
Oscar 11 01 Feb 19:44:02 19:46:46 17° 67° (ENE) 19:49:39 145.826/435.025
HO-68 01 Feb 19:47:14 19:54:22 79° 72° (ENE) 20:01:33 435.675
UWE-3 01 Feb 19:49:31 19:51:34 13° 64° (ENE) 19:53:51 435.000/436.395/437.385
SO-50 01 Feb 19:50:59 19:53:09 12° 251° (WSW) 19:55:03 436.795
STRAND 1 01 Feb 19:51:57 19:56:33 33° 292° (WNW) 20:01:05 437.568
SEEDS 01 Feb 19:52:57 19:57:06 56° 75° (ENE) 20:01:16 437.485
CUBESAT XI-V 01 Feb 19:53:12 19:56:34 19° 294° (WNW) 19:59:48 437.345
PRISM 01 Feb 19:59:29 20:00:18 10° 297° (WNW) 20:00:53 437.425
CINEMA 3 01 Feb 20:04:41 20:09:15 37° 70° (ENE) 20:13:54 145.822/145.860
DELFI C3 01 Feb 20:11:42 20:15:00 25° 70° (ENE) 20:18:23 145.870
COMPASS 1 01 Feb 20:13:54 20:18:08 82° 77° (ENE) 20:22:21 437.405
HUMSAT D 01 Feb 20:18:57 20:19:54 11° 63° (ENE) 20:21:06 437.325/437.525
UKube-1 01 Feb 20:20:43 20:24:11 24° 68° (ENE) 20:27:43 .
AAUSAT CUBESAT 2 01 Feb 20:37:20 20:41:30 61° 260° (W) 20:45:40 437.432
CANX-2 01 Feb 20:40:15 20:44:08 32° 264° (W) 20:47:59 2200.000
ZACube-1 01 Feb 20:42:18 20:46:29 36° 71° (ENE) 20:50:44 437.345
DX 1 01 Feb 20:45:21 20:49:30 46° 72° (ENE) 20:53:43 434.975-435.025
DOVE 4 01 Feb 20:45:37 20:50:37 53° 262° (W) 20:55:49 437.250
CUBEBUG 2 01 Feb 20:50:59 20:55:42 64° 74° (ENE) 21:00:27 437.445
GOMX 1 01 Feb 20:51:53 20:56:36 35° 266° (W) 21:01:31 467.674
FUNcube-1 01 Feb 20:52:43 20:57:06 45° 72° (ENE) 21:01:30 145.935
50 SAT 01 Feb 20:53:13 20:55:59 18° 67° (ENE) 20:58:52 437.505
CUTE 1.7 + AOD 2 01 Feb 21:04:42 21:07:55 20° 268° (W) 21:11:00 437.475
ISS 01 Feb 21:07:13 21:10:22 43° 330° (NNW) 21:13:32 145.825
BRITE-PL 01 Feb 21:18:22 21:21:29 15° 274° (W) 21:24:27 437.365/2234.400
Oscar 11 01 Feb 21:18:30 21:22:40 44° 262° (W) 21:26:50 145.826/435.025
UWE-3 01 Feb 21:22:55 21:27:36 71° 259° (W) 21:32:20 435.000/436.395/437.385
AISAT 01 Feb 21:28:02 21:32:21 51° 73° (ENE) 21:36:43 437.250
SEEDS 01 Feb 21:31:34 21:33:22 12° 271° (W) 21:34:57 437.485
YUBILEINY 01 Feb 21:34:46 21:39:50 16° 303° (WNW) 21:44:22 435.215
HO-68 01 Feb 21:38:06 21:42:58 18° 271° (W) 21:47:29 435.675
ANTELSAT 01 Feb 21:38:56 21:41:42 17° 90° (E) 21:44:35 437.575/2403.000
CINEMA 3 01 Feb 21:42:25 21:46:33 25° 267° (W) 21:50:39 145.822/145.860
ESTCUBE 1 01 Feb 21:43:40 21:47:37 32° 70° (ENE) 21:51:38 437.505/2401.250
TIGRISAT 01 Feb 21:44:08 21:47:11 19° 91° (E) 21:50:19 435.000
DELFI C3 01 Feb 21:46:47 21:50:13 25° 266° (W) 21:53:33 145.870
HUMSAT D 01 Feb 21:50:48 21:55:10 75° 260° (W) 21:59:32 437.325/437.525
CUBEBUG 1 01 Feb 21:51:08 21:55:03 35° 71° (ENE) 21:59:04 437.445
POLYITAN 1 01 Feb 21:51:35 21:53:37 13° 89° (E) 21:55:52 437.675
VELOX 1 01 Feb 21:54:04 21:58:31 86° 257° (WSW) 22:03:01 145.980
UKube-1 01 Feb 21:56:25 22:00:14 30° 264° (W) 22:04:03 .
AIST 1 01 Feb 22:04:05 22:08:28 74° 264° (W) 22:12:49
POPSAT HIP 1 01 Feb 22:08:33 22:11:44 21° 93° (E) 22:15:02 437.405
DUCHIFAT 1 01 Feb 22:08:51 22:12:02 20° 93° (E) 22:15:18 145.980
ZACube-1 01 Feb 22:19:19 22:22:59 22° 268° (W) 22:26:33 437.345
DX 1 01 Feb 22:23:23 22:26:04 15° 269° (W) 22:28:37 434.975-435.025
50 SAT 01 Feb 22:27:00 22:30:51 37° 263° (W) 22:34:42 437.505
CUBEBUG 2 01 Feb 22:30:28 22:32:55 13° 272° (W) 22:35:07 437.445
FUNcube-1 01 Feb 22:30:32 22:33:43 18° 269° (W) 22:36:44 145.935
UNISAT 6 01 Feb 22:38:04 22:42:31 77° 102° (ESE) 22:46:49 437.425
NANOSAT C BR1 01 Feb 22:43:39 22:47:51 51° 99° (E) 22:52:01 145.865
ISS 01 Feb 22:45:33 22:47:30 15° 349° (N) 22:49:27 145.825
SPROUT 01 Feb 22:56:45 23:00:49 43° 72° (ENE) 23:04:58 437.525
BUGSAT 1 01 Feb 22:59:13 23:03:28 59° 100° (E) 23:07:42 437.445
QB50P2 01 Feb 23:00:13 23:04:33 82° 102° (ESE) 23:08:50 145.880/145.840
AISAT 01 Feb 23:06:43 23:09:21 15° 270° (W) 23:11:47 437.250
QB50P1 01 Feb 23:08:09 23:12:29 83° 284° (WNW) 23:16:45 145.935-145.965
ANTELSAT 01 Feb 23:14:37 23:18:48 42° 288° (WNW) 23:22:52 437.575/2403.000
TISAT 1 01 Feb 23:20:01 23:24:16 79° 76° (ENE) 23:28:34 437.305
TIGRISAT 01 Feb 23:20:04 23:24:10 37° 289° (WNW) 23:28:08 435.000
ESTCUBE 1 01 Feb 23:20:55 23:24:34 23° 266° (W) 23:28:08 437.505/2401.250
POLYITAN 1 01 Feb 23:25:45 23:29:57 52° 287° (WNW) 23:34:07 437.675
CUBEBUG 1 01 Feb 23:28:15 23:31:35 20° 267° (W) 23:34:49 437.445
GONETS M04 01 Feb 23:41:11 23:48:13 29° 84° (E) 23:55:28
POPSAT HIP 1 01 Feb 23:43:51 23:47:46 33° 289° (WNW) 23:51:36 437.405
DUCHIFAT 1 01 Feb 23:44:06 23:48:01 33° 289° (WNW) 23:51:50 145.980
BEESAT 3 01 Feb 23:52:06 23:53:23 11° 109° (ESE) 23:54:52 437.485
SWISSCUBE 01 Feb 23:57:56 00:02:10 34° 70° (ENE) 00:06:30 437.505
BEESAT 02 Feb 00:12:39 00:17:08 44° 72° (ENE) 00:21:41 436.000
UNISAT 6 02 Feb 00:17:42 00:18:43 11° 298° (WNW) 00:19:30 437.425
ITUPSAT 1 02 Feb 00:18:59 00:23:35 50° 72° (ENE) 00:28:12 437.325
NANOSAT C BR1 02 Feb 00:20:51 00:23:21 15° 295° (WNW) 00:25:41 145.865
ISS 02 Feb 00:23:12 00:25:01 14° 9° (N) 00:26:51 145.825
Oscar 19 02 Feb 00:33:47 00:37:37 22° 92° (E) 00:41:36 437.125/150
SPROUT 02 Feb 00:34:24 00:37:12 16° 269° (W) 00:39:51 437.525
BUGSAT 1 02 Feb 00:36:26 00:38:32 13° 296° (WNW) 00:40:26 437.445
STARS 02 Feb 00:52:07 00:54:33 15° 65° (ENE) 00:57:10 437.465
O/OREOS (USA 219) 02 Feb 00:55:36 01:00:09 59° 65° (ENE) 01:04:42 437.305
ITAMSAT 1 02 Feb 01:00:07 01:02:17 13° 88° (E) 01:04:47 435.822/435.867
KKS-1 02 Feb 01:05:54 01:09:48 31° 70° (ENE) 01:13:47 437.445
BEESAT 2 02 Feb 01:16:58 01:21:05 87° 122° (ESE) 01:25:17 435.950
BEESAT 3 02 Feb 01:26:58 01:31:02 64° 304° (NW) 01:35:11 437.485
AIST 2 02 Feb 01:34:00 01:38:07 53° 118° (ESE) 01:42:20 435.215
CUSAT 1 02 Feb 01:35:54 01:38:06 12° 79° (E) 01:40:58 437.405
GONETS M04 02 Feb 01:35:57 01:44:36 59° 283° (WNW) 01:53:11
SWISSCUBE 02 Feb 01:36:13 01:40:08 25° 266° (W) 01:43:59 437.505
BEESAT 02 Feb 01:51:50 01:55:16 19° 268° (W) 01:58:34 436.000
M-CUBED/EXP-1 PRIME 02 Feb 01:52:58 01:56:33 36° 68° (ENE) 01:59:55 437.505
ITUPSAT 1 02 Feb 01:58:42 02:01:50 17° 269° (W) 02:04:47 437.325
ISS 02 Feb 01:59:07 02:02:12 36° 28° (NNE) 02:05:19 145.825
RS-15 02 Feb 02:00:36 02:05:12 14° 99° (E) 02:10:45 29.354- 29.394
Oscar 19 02 Feb 02:12:21 02:17:14 44° 289° (WNW) 02:22:04 437.125/150
Gurwin Techsat 1B 02 Feb 02:18:40 02:23:51 52° 99° (E) 02:29:03 435.225
AO-7 02 Feb 02:21:55 02:24:10 12° 84° (E) 02:27:11 29.400- 29.500
AUBIESAT-1 02 Feb 02:22:23 02:26:16 77° 72° (ENE) 02:29:52 437.475
STARS 02 Feb 02:26:16 02:30:38 55° 260° (W) 02:35:02 437.465
O/OREOS (USA 219) 02 Feb 02:36:51 02:39:08 13° 260° (W) 02:41:10 437.305
ITAMSAT 1 02 Feb 02:37:14 02:42:28 75° 286° (WNW) 02:47:41 435.822/435.867
KKS-1 02 Feb 02:42:45 02:46:29 25° 266° (W) 02:50:10 437.445
HORYU 2 02 Feb 02:48:40 02:52:33 29° 96° (E) 02:56:27 437.375
BEESAT 2 02 Feb 02:57:59 02:59:58 13° 321° (NW) 03:01:49 435.950
DANDE 02 Feb 03:04:56 03:12:51 49° 92° (E) 03:20:59 436.750
PCSat 02 Feb 03:05:34 03:10:52 60° 115° (ESE) 03:16:13 145.827
CUSAT 1 02 Feb 03:11:47 03:19:57 61° 94° (E) 03:28:02 437.405
AIST 2 02 Feb 03:14:00 03:17:06 19° 317° (NW) 03:20:08 435.215
MOZHAYETS 4 02 Feb 03:14:20 03:18:13 28° 69° (ENE) 03:22:10
M-CUBED/EXP-1 PRIME 02 Feb 03:29:17 03:31:40 15° 261° (W) 03:33:49 437.505
ISS 02 Feb 03:35:46 03:38:37 26° 225° (SW) 03:41:25 145.825
JAS-2 02 Feb 03:37:36 03:42:06 23° 93° (E) 03:47:12 435.910
GONETS M04 02 Feb 03:41:32 03:43:54 11° 308° (NW) 03:45:33
Gurwin Techsat 1B 02 Feb 03:59:34 04:03:30 21° 296° (WNW) 04:07:18 435.225
RS-15 02 Feb 04:05:02 04:15:50 73° 118° (ESE) 04:26:48 29.354- 29.394
AO-7 02 Feb 04:10:24 04:18:44 70° 104° (ESE) 04:27:00 29.400- 29.500
HORYU 2 02 Feb 04:25:28 04:29:09 25° 292° (WNW) 04:32:44 437.375
DANDE 02 Feb 04:48:28 04:56:29 42° 289° (WNW) 05:04:24 436.750
PCSat 02 Feb 04:50:27 04:54:44 23° 314° (NW) 04:58:56 145.827
MOZHAYETS 4 02 Feb 04:51:30 04:55:27 27° 266° (W) 04:59:20
CUSAT 1 02 Feb 04:55:58 05:03:26 33° 292° (WNW) 05:10:32 437.405
PRISM 02 Feb 05:11:27 05:15:25 50° 73° (ENE) 05:19:26 437.425
Cubesat XI-IV 02 Feb 05:13:52 05:17:32 19° 91° (E) 05:21:24 437.490
CUBESAT XI-V 02 Feb 05:18:11 05:22:30 42° 72° (ENE) 05:26:54 437.345
JAS-2 02 Feb 05:21:47 05:27:29 56° 287° (WNW) 05:33:53 435.910
STRAND 1 02 Feb 05:28:28 05:33:13 42° 71° (ENE) 05:38:03 437.568
CUTE-I 02 Feb 05:31:59 05:36:30 28° 94° (E) 05:41:07 437.470
YUBILEINY 02 Feb 05:42:58 05:51:30 53° 76° (ENE) 06:00:05 435.215
